• In Russia
  • List of Countries
  • For 7 days
  • Water Temperature
  • Satellite Maps
  • Weather Map
  • Weather Widgets
  • user-avatar
    Login

    Hourly Weather Idzhewan

    Today, 18 February, Monday

    Time Temperature Precipitation Wind Pressure Humidity
    00:00 +2°C° 0 mm 2 mps 692 mmHg 60%
    01:00 +2°C° 0 mm 2 mps 692 mmHg 59%
    02:00 +2°C° 0 mm 2 mps 692 mmHg 58%
    03:00 +2°C° 0 mm 2 mps 692 mmHg 58%
    04:00 +1°C° 0 mm 3 mps 691 mmHg 57%
    05:00 +1°C° 0 mm 3 mps 691 mmHg 56%
    06:00 0°C° 0 mm 3 mps 691 mmHg 55%
    07:00 +2°C° 0 mm 3 mps 691 mmHg 53%
    08:00 +3°C° 0 mm 3 mps 690 mmHg 50%
    09:00 +4°C° 0 mm 3 mps 690 mmHg 47%
    10:00 +5°C° 0 mm 3 mps 689 mmHg 45%
    11:00 +7°C° 0 mm 3 mps 689 mmHg 44%
    12:00 +8°C° 0 mm 4 mps 688 mmHg 42%
    13:00 +8°C° 0 mm 4 mps 688 mmHg 43%
    14:00 +8°C° 0 mm 5 mps 687 mmHg 43%
    15:00 +8°C° 0 mm 5 mps 687 mmHg 44%
    16:00 +7°C° 0 mm 4 mps 687 mmHg 48%
    17:00 +6°C° 0 mm 4 mps 687 mmHg 52%
    18:00 +5°C° 0 mm 3 mps 687 mmHg 56%
    19:00 +4°C° 0 mm 3 mps 687 mmHg 58%
    20:00 +4°C° 0 mm 2 mps 687 mmHg 60%
    21:00 +4°C° 0 mm 2 mps 688 mmHg 62%
    22:00 +4°C° 0 mm 2 mps 688 mmHg 60%
    23:00 +3°C° 0 mm 2 mps 688 mmHg 59%

    Tomorrow, 19 February, Tuesday

    Time Temperature Precipitation Wind Pressure Humidity
    00:00 +3°C° 0 mm 2 mps 688 mmHg 58%
    01:00 +3°C° 0 mm 2 mps 688 mmHg 56%
    02:00 +3°C° 0 mm 2 mps 688 mmHg 55%
    03:00 +3°C° 0 mm 2 mps 689 mmHg 54%
    04:00 +3°C° 0 mm 2 mps 689 mmHg 54%
    05:00 +3°C° 0 mm 2 mps 689 mmHg 54%
    06:00 +3°C° 0 mm 2 mps 689 mmHg 54%
    07:00 +3°C° 0 mm 2 mps 690 mmHg 53%
    08:00 +4°C° 0 mm 2 mps 690 mmHg 51%
    09:00 +4°C° 0 mm 2 mps 691 mmHg 49%
    10:00 +4°C° 0 mm 3 mps 691 mmHg 46%
    11:00 +5°C° 0 mm 4 mps 691 mmHg 42%
    12:00 +5°C° 0 mm 4 mps 692 mmHg 38%
    13:00 +5°C° 0 mm 4 mps 692 mmHg 38%
    14:00 +5°C° 0 mm 4 mps 692 mmHg 37%
    15:00 +5°C° 0 mm 4 mps 692 mmHg 37%
    16:00 +4°C° 0 mm 3 mps 693 mmHg 43%
    17:00 +3°C° 0 mm 3 mps 693 mmHg 49%
    18:00 +2°C° 0 mm 2 mps 694 mmHg 55%
    19:00 +3°C° 0 mm 1 mps 695 mmHg 59%
    20:00 +2°C° 0 mm 1 mps 695 mmHg 62%
    21:00 +1°C° 0 mm 0 mps 696 mmHg 66%
    22:00 +1°C° 0 mm 0 mps 696 mmHg 66%
    23:00 0°C° 0 mm 0 mps 697 mmHg 67%

    Day after tomorrow, 20 February, Wednesday

    Time Temperature Precipitation Wind Pressure Humidity
    00:00 0°C° 0 mm 0 mps 697 mmHg 67%
    01:00 0°C° 0 mm 0 mps 697 mmHg 68%
    02:00 0°C° 0 mm 0 mps 697 mmHg 69%
    03:00 -1°C° 0 mm 0 mps 697 mmHg 69%
    04:00 -1°C° 0 mm 0 mps 697 mmHg 69%
    05:00 -1°C° 0 mm 0 mps 697 mmHg 68%
    06:00 0°C° 0 mm 1 mps 697 mmHg 68%
    07:00 +1°C° 0 mm 1 mps 698 mmHg 64%
    08:00 +2°C° 0 mm 1 mps 698 mmHg 59%
    09:00 +3°C° 0 mm 1 mps 698 mmHg 55%
    10:00 +4°C° 0 mm 1 mps 698 mmHg 53%
    11:00 +4°C° 0 mm 2 mps 698 mmHg 51%
    12:00 +5°C° 0 mm 2 mps 697 mmHg 49%
    13:00 +5°C° 0 mm 2 mps 697 mmHg 50%
    14:00 +5°C° 0 mm 2 mps 696 mmHg 51%
    15:00 +6°C° 0 mm 2 mps 696 mmHg 52%
    16:00 +4°C° 0 mm 2 mps 696 mmHg 59%
    17:00 +4°C° 0 mm 1 mps 696 mmHg 66%
    18:00 +3°C° 0 mm 1 mps 696 mmHg 73%
    19:00 +3°C° 0 mm 1 mps 697 mmHg 73%
    20:00 +2°C° 0 mm 1 mps 697 mmHg 72%
    21:00 +1°C° 0 mm 0 mps 697 mmHg 72%
    22:00 +1°C° 0 mm 0 mps 697 mmHg 70%
    23:00 +1°C° 0 mm 0 mps 697 mmHg 68%

    21 February, Thursday

    Time Temperature Precipitation Wind Pressure Humidity
    00:00 +1°C° 0 mm 0 mps 697 mmHg 66%
    01:00 +2°C° 0 mm 1 mps 697 mmHg 63%
    02:00 +1°C° 0 mm 1 mps 696 mmHg 60%
    03:00 +1°C° 0 mm 1 mps 696 mmHg 57%
    04:00 +1°C° 0 mm 1 mps 696 mmHg 55%
    05:00 +1°C° 0 mm 1 mps 696 mmHg 52%
    06:00 -1°C° 0 mm 2 mps 696 mmHg 50%
    07:00 +3°C° 0 mm 1 mps 696 mmHg 46%
    08:00 +4°C° 0 mm 1 mps 696 mmHg 42%
    09:00 +5°C° 0 mm 1 mps 696 mmHg 38%
    10:00 +6°C° 0 mm 1 mps 695 mmHg 36%
    11:00 +8°C° 0 mm 1 mps 695 mmHg 34%
    12:00 +9°C° 0 mm 1 mps 695 mmHg 32%
    13:00 +9°C° 0 mm 1 mps 694 mmHg 33%
    14:00 +9°C° 0 mm 1 mps 694 mmHg 33%
    15:00 +10°C° 0 mm 1 mps 693 mmHg 33%
    16:00 +8°C° 0 mm 1 mps 694 mmHg 38%
    17:00 +7°C° 0 mm 1 mps 694 mmHg 42%
    18:00 +6°C° 0 mm 1 mps 694 mmHg 47%
    19:00 +5°C° 0 mm 1 mps 694 mmHg 48%
    20:00 +5°C° 0 mm 1 mps 695 mmHg 48%
    21:00 +4°C° 0 mm 1 mps 695 mmHg 49%
    22:00 +4°C° 0 mm 1 mps 695 mmHg 48%
    23:00 +4°C° 0 mm 1 mps 695 mmHg 48%

    22 February, Friday

    Time Temperature Precipitation Wind Pressure Humidity
    00:00 +3°C° 0 mm 1 mps 695 mmHg 47%
    01:00 +3°C° 0 mm 1 mps 695 mmHg 48%
    02:00 +3°C° 0 mm 1 mps 695 mmHg 49%
    03:00 +2°C° 0 mm 2 mps 695 mmHg 49%
    04:00 +2°C° 0 mm 2 mps 695 mmHg 51%
    05:00 +1°C° 0 mm 2 mps 695 mmHg 52%
    06:00 +1°C° 0 mm 2 mps 695 mmHg 53%
    07:00 +2°C° 0 mm 2 mps 695 mmHg 51%
    08:00 +3°C° 0 mm 2 mps 695 mmHg 48%
    09:00 +6°C° 0 mm 1 mps 695 mmHg 46%
    10:00 +6°C° 0 mm 2 mps 695 mmHg 44%
    11:00 +7°C° 0 mm 2 mps 694 mmHg 41%
    12:00 +8°C° 0 mm 2 mps 694 mmHg 39%
    13:00 +8°C° 0 mm 2 mps 693 mmHg 39%
    14:00 +8°C° 0 mm 2 mps 693 mmHg 39%
    15:00 +8°C° 0 mm 2 mps 692 mmHg 40%
    16:00 +7°C° 0 mm 2 mps 693 mmHg 44%
    17:00 +7°C° 0 mm 1 mps 693 mmHg 49%
    18:00 +6°C° 0 mm 1 mps 693 mmHg 53%
    19:00 +5°C° 0 mm 1 mps 693 mmHg 56%
    20:00 +4°C° 0 mm 1 mps 693 mmHg 58%
    21:00 +4°C° 0 mm 1 mps 693 mmHg 60%
    22:00 +4°C° 0 mm 1 mps 693 mmHg 60%
    23:00 +3°C° 0 mm 1 mps 693 mmHg 60%

    23 February, Saturday

    Time Temperature Precipitation Wind Pressure Humidity
    00:00 +3°C° 0 mm 1 mps 693 mmHg 60%
    01:00 +3°C° 0 mm 1 mps 693 mmHg 61%
    02:00 +3°C° 0 mm 1 mps 693 mmHg 61%
    03:00 +2°C° 0 mm 1 mps 692 mmHg 62%
    04:00 +2°C° 0 mm 1 mps 692 mmHg 61%
    05:00 +2°C° 0 mm 1 mps 692 mmHg 61%
    06:00 +2°C° 0 mm 1 mps 692 mmHg 60%
    07:00 +3°C° 0 mm 1 mps 692 mmHg 56%
    08:00 +4°C° 0 mm 1 mps 692 mmHg 52%
    09:00 +4°C° 0 mm 1 mps 692 mmHg 48%
    10:00 +5°C° 0 mm 2 mps 691 mmHg 45%
    11:00 +6°C° 0 mm 2 mps 691 mmHg 43%
    12:00 +7°C° 0 mm 2 mps 691 mmHg 41%
    13:00 +7°C° 0 mm 2 mps 690 mmHg 41%
    14:00 +7°C° 0 mm 2 mps 690 mmHg 41%
    15:00 +8°C° 0 mm 2 mps 689 mmHg 41%
    16:00 +8°C° 0 mm 1 mps 689 mmHg 46%
    17:00 +7°C° 0 mm 1 mps 689 mmHg 51%
    18:00 +6°C° 0 mm 1 mps 690 mmHg 56%
    19:00 +6°C° 0 mm 1 mps 690 mmHg 58%
    20:00 +5°C° 0 mm 1 mps 690 mmHg 60%
    21:00 +4°C° 0 mm 0 mps 690 mmHg 62%
    22:00 +5°C° 0.1 mm 1 mps 690 mmHg 64%
    23:00 +4°C° 0.1 mm 1 mps 690 mmHg 66%
    Show more